Theta_e
323 324 325 327 331 335 338 340 340 341 347 350 348 347 352 353 352 352 353 353 351 349 348 350 351 352 352 354 355 356 356 356 357 357 355 354 352 352 354 353 353 354 354 353
323 323 325 328 330 333 336 339 340 343 349 349 348 349 348 350 354 352 352 353 353 351 350 351 352 352 352 354 356 357 357 358 359 357 355 354 353 352 353 355 354 355 354 353
324 323 324 325 329 333 337 338 340 345 349 349 347 351 350 348 351 352 351 350 353 352 351 351 351 352 353 354 356 357 358 359 359 358 357 357 357 356 355 352 352 352 354 354
324 324 323 324 326 331 336 336 338 343 349 351 348 348 345 347 349 352 354 351 350 352 352 351 351 351 352 353 354 357 358 359 360 360 356 357 354 351 348 348 347 347 352 350
323 322 322 323 325 329 334 335 338 341 347 346 349 350 345 347 350 351 353 352 349 348 349 351 350 349 350 352 353 355 358 360 359 359 358 357 357 351 350 349 349 348 350 349
326 324 323 324 324 327 331 334 337 339 344 348 346 349 346 346 350 347 349 352 350 347 346 347 346 347 349 350 352 353 356 359 360 360 360 358 355 354 350 351 348 346 347 349
326 325 323 323 324 326 331 335 341 343 343 345 344 346 344 339 341 343 341 349 351 347 346 346 347 347 347 349 350 352 355 359 360 359 358 359 358 357 356 355 348 343 344 343
328 327 325 323 324 327 330 335 339 344 341 340 342 344 342 341 339 338 340 342 349 350 346 347 347 347 347 349 351 353 355 358 359 358 358 358 359 357 355 355 346 343 340 341
328 328 325 324 324 326 329 335 335 337 337 338 337 340 339 338 339 339 341 343 346 350 349 347 348 347 348 350 353 355 357 359 358 357 357 358 358 357 353 353 354 346 343 340
329 330 327 326 324 325 328 331 335 336 344 341 337 339 341 340 339 338 338 342 345 348 349 348 347 348 349 350 352 354 357 359 358 356 357 356 356 357 356 356 354 347 346 343
329 329 328 326 325 325 326 329 333 335 336 339 340 337 335 336 336 336 335 339 342 344 349 350 349 347 350 351 352 354 356 357 358 357 356 356 355 355 357 357 355 350 347 345
329 331 330 324 324 324 326 328 332 336 339 337 337 337 335 336 335 334 335 335 335 340 344 349 350 350 349 351 352 354 355 356 357 356 357 356 355 354 355 356 353 349 346 344
330 331 333 331 326 324 324 326 328 331 334 343 338 337 335 333 335 335 337 336 338 346 346 349 350 352 353 352 354 353 354 355 355 356 357 356 356 355 354 355 351 347 343 341
327 329 331 331 330 328 326 324 325 327 333 333 334 336 335 334 334 334 336 339 340 345 348 349 351 353 354 353 356 356 353 354 354 355 356 357 357 356 353 354 348 344 335 337
326 332 332 330 329 329 328 327 325 325 326 331 331 334 334 335 334 334 334 334 338 347 349 350 352 354 357 356 356 356 355 354 354 355 356 357 358 357 353 352 347 343 335 331
329 336 335 334 332 331 330 329 328 326 325 326 327 329 332 333 333 334 334 335 337 345 349 350 353 354 357 356 357 356 356 355 356 356 357 357 359 357 354 351 346 341 340 335
331 333 338 336 334 332 333 332 330 329 327 325 327 328 329 330 332 336 339 338 339 343 349 350 352 356 356 356 356 357 356 356 356 357 357 358 359 356 352 349 346 343 340 337
337 338 337 338 337 339 332 330 330 329 328 326 326 327 328 330 332 335 338 340 341 343 346 350 350 352 353 353 353 354 354 356 357 358 358 358 357 355 350 348 345 344 341 336
331 339 337 338 338 335 333 338 338 332 331 330 328 328 328 329 331 337 338 341 343 344 346 350 348 349 350 349 351 353 352 354 355 357 357 357 355 353 349 348 344 343 341 337
331 336 337 338 337 338 345 340 338 340 340 332 330 329 329 330 332 336 343 340 339 341 346 347 345 346 348 347 349 351 352 354 355 356 356 356 354 352 350 348 345 343 341 337
337 339 336 340 340 338 341 337 339 343 339 343 342 330 330 334 335 343 342 342 342 344 347 346 346 348 348 347 349 351 352 354 353 354 356 356 353 352 349 347 346 341 337 336
340 339 335 339 342 341 338 339 344 345 344 342 340 342 339 342 342 345 346 346 346 347 347 346 348 349 350 351 353 353 354 355 355 355 356 354 351 350 348 346 343 341 339 339
338 336 337 338 338 340 336 338 336 339 342 343 342 341 342 343 345 346 347 347 346 345 344 344 347 350 350 352 353 355 357 355 355 354 353 350 347 347 346 344 343 343 343 341
341 340 340 341 340 339 337 333 332 333 336 337 340 341 341 343 343 344 345 345 345 345 346 345 347 349 351 351 352 352 351 351 351 349 348 346 345 343 342 344 344 343 343 342
338 341 342 341 339 338 336 333 331 331 331 333 333 334 339 343 346 347 349 348 347 346 344 344 345 347 348 349 348 348 348 349 350 348 347 346 345 343 338 336 335 339 337 335
329 337 340 339 336 340 334 329 327 327 328 330 332 332 332 333 334 335 339 342 345 347 346 346 347 348 348 348 348 348 348 348 346 345 345 344 341 337 337 336 332 332 330 329
Wind_Speed
20 18 21 24 23 21 17 15 14 14 13 16 15 14 12 11 15 16 17 18 19 20 21 24 25 24 24 22 21 21 21 19 18 17 16 15 15 14 12 13 13 11 11 11
16 22 22 20 21 23 19 19 16 12 8 15 14 15 14 13 16 17 19 19 19 19 19 23 25 26 26 25 23 22 22 22 21 18 16 14 12 12 12 9 10 10 9 10
18 18 20 21 22 24 22 21 18 14 11 15 11 14 15 17 16 16 19 19 21 21 21 21 26 27 27 26 25 25 23 23 23 21 17 13 13 11 10 11 10 9 8 8
21 17 21 19 24 22 23 22 18 18 15 13 16 12 14 17 18 18 20 21 21 23 21 21 24 28 29 28 26 26 25 24 23 22 21 19 15 13 10 8 7 6 8 8
20 21 20 24 23 24 24 19 18 17 17 18 16 10 13 5 14 20 23 24 24 23 23 23 23 29 30 29 28 27 26 26 24 23 23 21 19 15 13 10 8 10 9 10
22 14 19 22 21 23 21 13 15 17 17 19 21 16 15 14 15 18 17 23 24 24 22 22 28 28 29 30 29 28 27 27 26 25 24 24 20 18 15 13 12 12 12 12
22 20 16 17 23 24 22 19 12 15 15 16 19 18 16 9 13 16 15 21 23 22 22 22 23 25 30 31 31 30 28 28 28 27 26 25 24 21 18 15 15 12 12 14
19 21 25 17 26 26 28 25 15 24 15 15 20 17 19 19 20 19 10 11 20 24 23 24 24 28 31 32 33 31 29 30 30 29 28 26 25 23 21 19 16 15 14 13
20 25 25 21 19 26 26 26 25 23 19 17 18 15 22 15 18 18 16 14 15 22 25 26 26 32 33 33 33 34 32 31 31 30 28 28 26 25 22 19 19 16 14 13
12 14 21 23 19 25 26 22 24 20 25 22 20 21 13 19 21 19 16 15 18 19 22 25 25 31 34 34 35 35 33 32 32 30 30 28 27 26 26 23 22 18 16 15
23 14 17 21 27 25 21 18 21 22 22 19 18 18 15 14 12 13 13 15 15 17 21 22 24 33 34 34 33 33 32 32 31 33 32 29 30 29 27 25 21 19 17 18
24 15 15 19 20 26 24 24 26 17 24 19 21 18 19 22 19 20 18 13 12 11 15 19 21 26 32 35 33 32 33 34 34 34 32 32 30 30 28 27 24 25 20 19
19 15 15 19 18 16 23 28 28 26 21 26 21 19 13 9 10 14 12 13 10 9 12 16 18 20 26 32 31 34 34 34 34 31 31 31 32 32 31 27 30 23 23 22
6 19 23 17 22 20 23 23 28 28 21 22 26 21 22 22 19 17 13 14 13 10 11 15 17 20 25 28 29 31 32 30 30 31 31 29 30 29 28 28 27 30 29 24
14 15 14 21 22 19 23 28 28 29 31 27 24 28 23 22 18 19 17 16 14 12 13 17 19 19 18 25 26 27 28 27 27 27 27 27 24 24 24 26 29 31 34 34
14 13 17 21 23 24 27 27 30 31 29 29 32 31 22 25 25 21 22 19 18 15 16 18 18 19 20 25 26 25 24 24 23 23 24 23 22 23 25 27 29 29 31 39
15 14 11 15 17 16 23 26 27 28 32 28 28 25 26 28 22 25 21 20 19 18 17 18 21 20 18 22 23 23 23 22 22 22 23 24 24 25 27 29 30 32 33 31
9 15 11 12 8 17 16 21 24 26 26 30 28 23 25 26 21 21 21 18 17 18 14 15 15 15 19 20 21 21 22 23 23 22 22 22 22 21 24 27 29 31 31 32
18 12 11 12 14 17 9 6 10 15 26 25 24 23 23 26 24 16 14 14 15 14 12 12 16 19 21 23 23 22 21 21 22 22 22 22 24 25 26 27 29 30 32 33
20 16 12 8 15 17 5 10 9 11 14 23 26 24 25 19 15 17 12 12 10 9 12 12 19 22 23 23 25 24 22 22 22 23 22 23 23 24 27 28 29 29 30 30
17 15 18 11 11 5 4 10 1 9 6 19 20 27 26 22 12 3 7 9 9 10 14 19 20 21 23 24 25 23 22 20 19 18 18 19 20 21 24 27 25 27 26 26
17 15 12 7 10 11 7 2 2 9 13 13 10 13 15 9 12 12 12 15 16 16 19 23 20 20 20 21 21 19 17 17 17 16 14 12 12 13 16 19 21 24 25 27
17 15 9 9 4 8 7 6 3 7 7 11 5 7 12 16 19 19 18 19 16 17 16 23 21 19 15 13 14 17 15 14 16 16 15 17 21 19 12 13 16 18 18 19
3 6 7 10 6 12 12 13 11 10 10 11 12 14 14 16 15 16 17 16 14 14 14 18 18 16 14 13 12 14 13 12 13 14 13 14 14 15 14 12 14 16 14 13
5 5 10 9 13 15 14 12 7 9 10 12 15 16 14 15 14 17 15 15 13 14 17 17 15 13 14 12 13 14 14 14 15 16 16 15 14 13 12 8 6 4 4 7
9 6 5 10 15 12 6 9 7 6 10 12 14 16 16 17 16 17 14 11 13 10 16 14 12 12 13 14 16 15 16 15 16 16 15 14 13 13 11 9 8 7 6 9
Wind_Direction
191 202 209 205 213 227 223 207 213 207 159 203 208 217 174 193 212 212 197 198 201 205 200 200 201 201 204 205 205 207 209 209 209 209 213 221 230 235 237 243 246 246 240 246
184 215 209 216 214 228 239 219 220 195 170 216 206 224 227 199 213 215 212 204 209 207 202 200 202 204 205 206 209 211 213 212 213 215 218 229 234 241 246 242 243 239 231 227
208 206 219 213 214 220 224 230 219 200 188 221 242 230 226 217 212 217 220 217 209 212 207 202 204 206 207 208 210 213 215 215 215 219 219 221 231 239 243 244 248 241 232 223
222 213 208 207 223 213 223 224 236 210 190 221 206 242 207 217 209 213 215 214 216 211 212 209 205 208 209 210 212 214 216 215 216 215 219 219 225 230 229 238 236 223 212 210
203 211 199 214 213 213 229 220 224 236 212 235 179 243 253 184 224 218 216 213 214 215 211 210 208 208 210 208 210 214 214 214 213 213 216 217 226 228 228 220 210 212 205 207
227 202 217 222 213 221 221 241 224 229 225 232 229 208 237 213 227 235 226 214 211 210 210 210 209 207 207 208 210 212 212 212 210 210 213 215 220 222 220 210 210 212 211 210
215 194 207 217 211 211 208 206 204 218 222 234 214 233 230 246 216 237 242 208 211 210 206 205 206 202 203 205 207 210 208 209 208 209 212 214 217 219 223 221 219 219 215 212
206 212 208 193 214 200 213 213 220 214 220 223 238 230 230 237 264 266 251 249 194 207 207 206 203 206 205 204 205 207 205 208 207 209 212 214 215 219 222 221 223 218 219 218
204 227 193 212 214 218 203 219 227 241 225 242 224 211 245 246 253 258 245 215 208 203 208 205 203 206 206 205 206 205 205 205 206 208 208 211 212 214 217 219 217 221 219 210
213 230 216 199 211 218 229 210 220 231 236 224 238 233 217 225 230 235 226 220 216 207 207 209 206 204 204 205 207 208 207 204 205 207 209 212 212 212 213 215 211 207 213 209
227 220 203 209 208 206 209 231 219 232 225 241 230 233 215 241 236 238 231 214 226 214 208 208 209 205 202 206 206 207 207 208 208 206 206 207 210 211 211 214 204 204 204 200
217 209 234 214 208 220 215 215 217 224 225 235 249 245 226 220 228 247 249 256 240 231 218 207 205 204 202 206 206 204 207 208 209 208 204 206 206 208 210 209 204 208 189 195
203 224 214 232 204 215 230 219 222 220 236 224 226 233 228 196 233 252 240 252 256 242 222 207 204 196 203 204 205 207 208 209 211 209 207 208 207 208 209 207 196 195 194 186
312 225 218 220 221 211 207 232 234 233 229 236 242 240 226 224 234 243 236 249 258 235 224 208 204 198 200 203 203 207 209 211 211 210 211 210 210 209 210 207 196 190 198 180
214 237 229 239 260 246 228 214 222 235 239 238 237 238 229 239 224 241 253 254 255 234 219 204 201 199 196 199 202 205 208 209 212 210 213 213 213 213 211 207 199 195 190 189
211 236 240 247 241 244 248 240 225 223 234 241 242 247 236 226 244 244 248 250 247 238 219 205 201 200 199 197 196 194 198 202 203 208 210 212 207 208 208 204 201 193 188 188
212 224 211 235 221 241 239 240 241 235 225 231 235 238 234 240 233 234 237 239 241 235 215 203 201 203 198 192 190 186 188 189 192 199 202 202 203 204 199 199 201 199 196 193
213 225 225 239 229 234 245 235 237 244 238 229 235 238 225 238 231 229 234 244 243 240 222 208 204 198 189 183 181 180 179 181 185 188 197 198 198 199 196 201 201 202 200 194
223 217 218 237 231 247 246 24 334 274 248 240 242 233 235 230 228 255 247 242 240 244 222 201 196 180 176 177 172 170 171 174 178 182 188 192 190 193 193 197 200 202 204 203
213 220 242 190 246 244 70 353 325 306 257 239 235 223 227 230 230 239 192 219 220 214 184 180 179 169 167 167 159 157 162 168 178 180 183 190 190 192 194 192 194 201 206 204
193 205 214 197 233 200 34 342 105 224 294 322 302 230 226 230 234 84 158 140 147 150 146 144 154 149 147 147 149 153 161 173 174 170 178 187 190 191 194 186 190 192 199 202
188 196 209 205 220 221 3 253 253 341 321 313 277 272 237 179 146 132 124 117 120 124 124 123 125 124 131 140 147 149 155 156 156 157 163 174 181 187 202 180 182 197 200 206
202 205 189 234 207 82 66 66 41 314 3 15 84 127 150 147 131 122 114 106 107 105 106 108 109 107 111 124 145 143 138 154 153 157 163 163 168 177 168 176 189 207 209 213
104 162 151 165 132 104 85 81 50 40 68 66 69 87 109 114 114 111 103 102 101 99 95 103 108 107 101 97 98 112 125 135 140 137 137 149 158 136 154 182 204 210 206 212
20 312 156 112 131 111 81 61 36 62 69 67 79 84 86 84 81 86 87 92 82 87 84 85 90 94 97 101 105 115 128 137 140 143 139 142 135 120 119 120 121 155 173 209
345 357 202 170 157 108 85 56 11 57 58 69 76 73 70 72 68 70 61 56 76 79 92 92 98 111 116 122 122 126 129 133 136 131 133 135 123 126 142 161 146 164 197 222